This is the latest recevied weather packets stored in our database for station/object W5GMO. If no packets are shown the sender has not sent any weather packets the latest 10 day(s).
| Time | Temp. | Humidity | Pressure | Rain* | Wind** | Luminosity | Snow |
|---|---|---|---|---|---|---|---|
| 1788309540 | 31.67° C | 1% | 1014.5 hPa | 0 mm | - | 0 W/m² | - |
| 1788309235 | 32.22° C | 1% | 1014.3 hPa | 0 mm | - | 0 W/m² | - |
| 1788308932 | 32.22° C | 1% | 1014.1 hPa | 0 mm | - | 0 W/m² | - |
| 1788308630 | 32.22° C | 1% | 1014.1 hPa | 0 mm | - | 0 W/m² | - |
| 1788308326 | 32.22° C | 1% | 1013.9 hPa | 0 mm | - | 0 W/m² | - |
| 1788308021 | 32.78° C | 1% | 1013.9 hPa | 0 mm | - | 0 W/m² | - |
| 1788307716 | 32.78° C | 1% | 1013.8 hPa | 0 mm | - | 0 W/m² | - |
| 1788307415 | 32.78° C | 1% | 1013.7 hPa | 0 mm | - | 0 W/m² | - |
| 1788307111 | 32.78° C | 1% | 1013.7 hPa | 0 mm | - | 0 W/m² | - |
| 1788306810 | 32.78° C | 1% | 1013.6 hPa | 0 mm | - | 0 W/m² | - |
| 1788306506 | 32.78° C | 1% | 1013.5 hPa | 0 mm | - | 1 W/m² | - |
| 1788306220 | 32.78° C | 1% | 1013.5 hPa | 0 mm | - | 2 W/m² | - |
| 1788305895 | 33.33° C | 1% | 1013.7 hPa | 0 mm | - | 5 W/m² | - |
| 1788305591 | 33.33° C | 1% | 1013.6 hPa | 0 mm | - | 11 W/m² | - |
| 1788305287 | 33.33° C | 1% | 1013.9 hPa | 0 mm | - | 18 W/m² | - |
| 1788304981 | 33.33° C | 1% | 1014 hPa | 0 mm | - | 25 W/m² | - |
| 1788304677 | 33.89° C | 1% | 1013.9 hPa | 0 mm | - | 32 W/m² | - |
| 1788304374 | 33.89° C | 1% | 1014.2 hPa | 0 mm | - | 33 W/m² | - |
| 1788304069 | 33.89° C | 1% | 1013.8 hPa | 0 mm | - | 34 W/m² | - |
| 1788303768 | 33.89° C | 1% | 1014 hPa | 0 mm | - | 40 W/m² | - |
| 1788303464 | 33.89° C | 1% | 1013.9 hPa | 0 mm | - | 35 W/m² | - |
| 1788303158 | 33.89° C | 1% | 1014.1 hPa | 0 mm | - | 37 W/m² | - |
| 1788302854 | 33.89° C | 1% | 1013.9 hPa | 0 mm | - | 46 W/m² | - |
| 1788302550 | 33.89° C | 1% | 1014 hPa | 0 mm | - | 46 W/m² | - |
| 1788302246 | 33.89° C | 1% | 1013.9 hPa | 0 mm | - | 45 W/m² | - |
* Rain latest hour (hover to see other rain measurements)
** Current wind speed in m/s (hover to see current wind gust speed)